Weather in Novyy Byt

Russia / Vladimir Oblast     55°58′27″N   41°37′20″E
temp.,
°C
wind,
m/s
gust,
m/s
humid.,
%
clouds,
%
prec.,
mm/h
press.,
hPa
HPBL,
m
3 march, wed
wed300:00−2nw4119493 0.1 1006627
03:00−5nw5128981 0.1 1009624
06:00−7nw5129398 0.0 1010473
09:00−7nw5119299 0.1 1012477
12:00−4nw5984100 0.1 1012839
15:00−2wnw598799 0.1 1011918
18:00−3wsw41195100 0.1 1009588
21:00−2w51291100 0.4 1008759
4 march, thu
thu400:00−2w51194100 0.3 1005857
03:00−2wsw61395100 0.9 1002796
06:000wsw61396100 1.1 9981000
09:00+1w81597100 2.4 9961240
12:000wnw71369100 0.7 9971358
15:00−1wnw6117874 0.7 999995
18:00−3wnw3988100 0.0 999569
21:00−6wnw2693100 0.0 1000138
5 march, fri
fri500:00−7nw2496100 0.0 1001109
03:00−9nnw2397100 0.0 100268
06:00−11nnw239666 0.0 100443
09:00−9nw139133 0.0 1005150
12:00−4wnw237921 0.0 1006547
15:00−3wsw247855 0.0 1007851
18:00−5nw1297100 0.4 100837
21:00−8wnw2694100 0.6 1010145
6 march, sat
sat600:00−11wnw369685 0.0 1011131
03:00−12wnw259659 0.0 1012108
06:00−13wnw369779 0.1 1014143
09:00−12nw369189 0.1 1015347
12:00−10nw357899 0.0 1015837
15:00−10wnw467999 0.1 1015887
18:00−13w259299 0.0 1014129
21:00−14w239662 0.1 101475
7 march, sun
sun700:00−14sw379590 0.1 1013163
03:00−14sw499267 0.1 1010250
06:00−11ssw6138666 0.0 1006525
09:00−9ssw7149183 0.3 1001961
12:00−5ssw81490100 0.9 9961123
15:00−3sw71390100 2.2 9931106
18:00−7wnw3886100 2.3 992564
21:00−11sw248983 2.3 99380